Date,TemperatureHighF,TemperatureAvgF,TemperatureLowF,DewpointHighF,DewpointAvgF,DewpointLowF,HumidityHigh,HumidityAvg,HumidityLow,PressureMaxIn,PressureMinIn,WindSpeedMaxMPH,WindSpeedAvgMPH,GustSpeedMaxMPH,PrecipitationSumIn
2013-1-1,55.9,48.2,38.3,50.5,23.4,4.8,83,43,21,29.47,29.15,13,4,13,0.08
2013-1-2,51.1,37.6,27.1,12.5,5.2,0.1,40,26,21,29.53,29.36,11,3,12,0.00
2013-1-3,50.9,37.7,22.3,22.5,10.3,3.0,67,35,21,29.65,29.44,10,1,11,0.00
2013-1-4,45.5,39.8,34.0,31.3,18.1,5.6,76,46,23,29.74,29.50,6,0,6,0.20
2013-1-5,73.9,45.5,32.5,35.1,23.3,9.6,77,48,16,29.59,29.39,10,1,10,0.04
2013-1-6,70.3,42.6,26.4,33.2,17.7,2.9,83,45,17,29.56,29.41,10,2,11,0.00
2013-1-7,67.8,42.0,24.4,28.9,13.8,4.7,74,36,18,29.53,29.21,11,1,12,0.00
2013-1-8,52.7,49.7,47.1,45.6,34.3,11.1,82,59,22,29.27,29.03,6,1,6,0.47
2013-1-9,63.5,55.6,49.8,50.2,38.6,19.5,83,58,19,29.12,28.94,14,2,15,1.38
2013-1-10,77.0,52.5,42.3,46.8,27.5,11.7,83,46,16,29.12,29.06,15,2,17,0.00
2013-1-11,81.0,59.1,40.5,40.8,28.7,14.4,80,37,15,29.18,28.94,17,4,21,0.00
2013-1-12,80.4,64.8,43.5,62.8,35.2,8.2,80,39,15,29.03,28.82,16,4,22,0.00
2013-1-13,56.1,42.7,35.1,16.0,7.7,2.8,25,23,20,29.27,29.03,17,5,17,0.00
2013-1-14,57.6,39.9,30.7,16.8,5.7,-0.9,25,24,20,29.39,29.21,15,5,15,0.00
2013-1-15,40.3,37.1,33.3,13.6,5.5,1.2,41,26,24,29.36,29.18,0,0,0,0.00
2013-1-16,62.8,38.2,21.9,19.9,4.6,-5.4,32,24,19,29.41,29.27,20,2,20,0.00
2013-1-17,75.0,45.7,26.8,25.8,10.3,-1.5,36,24,16,29.53,29.30,13,2,13,0.00
2013-1-18,77.0,46.7,25.5,30.3,16.7,5.0,82,36,16,29.50,29.27,15,2,15,0.00
2013-1-19,75.7,52.6,37.0,39.8,17.9,7.6,75,28,16,29.36,29.15,17,4,17,0.00
2013-1-20,89.2,55.1,34.0,55.3,24.9,14.0,83,39,13,29.27,29.12,11,1,13,0.04
2013-1-21,81.3,54.7,36.9,49.8,25.7,9.8,83,41,15,29.21,29.09,9,2,10,0.00
2013-1-22,78.3,54.5,36.5,28.4,18.7,9.5,64,26,16,29.24,29.12,17,2,17,0.00
2013-1-23,82.9,60.9,43.3,49.4,27.6,18.2,77,33,14,29.24,29.09,19,4,19,0.00
2013-1-24,91.9,65.4,50.0,57.7,35.0,21.8,83,43,12,29.12,29.00,15,4,15,0.00
2013-1-25,95.4,67.9,50.5,57.8,28.5,13.1,81,27,12,29.03,28.91,13,4,14,0.00
2013-1-26,69.8,55.9,48.7,48.7,26.4,12.7,76,36,17,29.00,28.88,8,1,8,0.00
2013-1-27,82.4,68.6,59.0,36.6,29.3,23.7,43,24,14,28.88,28.77,22,5,23,0.00
2013-1-28,82.2,71.9,68.7,37.2,31.7,26.0,31,23,15,28.80,28.62,23,2,23,0.00
2013-1-29,86.2,69.4,54.3,37.2,28.0,15.0,30,22,14,28.65,28.32,17,1,23,0.00
2013-1-30,65.7,50.2,29.5,21.1,12.3,-0.7,27,22,18,28.82,28.50,25,7,25,0.00
2013-1-31,81.9,48.0,23.7,29.7,11.2,-2.7,39,23,15,28.82,28.77,17,1,17,0.00
2013-2-1,79.3,55.1,34.0,28.1,15.3,3.7,36,21,15,28.85,28.71,20,3,20,0.00
2013-2-2,84.6,59.1,40.3,46.0,22.0,11.1,80,27,14,28.79,28.65,12,2,13,0.00
2013-2-3,81.7,58.7,35.6,29.6,18.3,6.8,36,21,15,28.79,28.44,13,1,16,0.00
2013-2-4,86.7,65.4,51.6,35.8,23.7,17.7,51,21,14,28.44,28.26,15,3,15,0.00
2013-2-5,94.1,62.2,40.8,43.0,27.8,12.7,83,35,12,28.38,28.26,9,1,9,0.00
2013-2-6,87.1,66.0,56.7,32.5,24.4,17.0,32,21,14,28.38,28.26,15,2,15,0.00
2013-2-7,93.7,69.6,57.9,33.6,27.1,17.1,33,21,12,28.50,28.26,16,4,19,0.00
2013-2-8,79.3,58.5,46.6,28.7,17.3,9.8,22,20,15,28.56,28.41,17,2,18,0.00
2013-2-9,69.8,59.0,50.2,53.2,28.2,11.8,70,32,20,28.41,28.06,17,2,17,0.00
2013-2-10,75.2,61.3,49.3,60.0,24.8,14.1,78,27,16,28.29,28.00,13,2,14,0.94
2013-2-11,59.4,52.5,49.8,31.1,18.1,12.5,44,26,20,28.35,28.17,10,1,10,0.31
2013-2-12,82.6,58.1,43.5,48.6,28.9,8.2,80,40,14,28.29,28.03,19,4,22,0.00
2013-2-13,76.8,47.9,32.7,27.1,13.2,5.1,67,26,16,28.32,28.23,14,2,18,0.00
2013-2-14,81.7,54.3,31.1,34.5,19.3,6.6,78,29,15,28.26,28.20,14,3,15,0.00
2013-2-15,63.0,48.7,32.5,20.1,11.7,1.5,29,22,19,28.53,28.23,16,2,16,0.00
2013-2-16,78.6,48.1,25.0,28.7,13.2,-0.4,70,27,16,28.50,28.29,11,1,13,0.00
2013-2-17,75.0,56.1,32.2,25.8,16.3,3.1,36,21,16,28.29,28.09,20,4,23,0.00
2013-2-18,91.2,68.5,53.4,33.1,22.8,14.5,21,18,13,28.29,28.00,20,4,23,0.00
2013-2-19,72.7,55.8,35.2,25.1,15.6,4.3,28,21,17,28.38,28.23,10,2,11,0.00
2013-2-20,63.9,56.1,51.8,58.6,26.0,13.1,83,37,19,28.26,27.73,9,0,9,0.00
2013-2-21,87.6,65.7,41.5,60.0,25.1,7.4,83,23,14,28.00,27.70,24,5,24,0.00
2013-2-22,71.1,49.4,39.6,24.1,12.1,5.8,25,22,17,28.15,27.94,12,3,14,0.00
2013-2-23,84.4,53.3,30.7,30.0,14.4,2.9,36,22,14,28.12,28.00,11,2,11,0.00
2013-2-24,77.5,59.7,36.5,27.9,18.8,6.7,36,21,16,28.00,27.70,21,4,21,0.00
2013-2-25,68.0,60.2,55.2,31.5,20.9,15.0,30,22,18,27.82,27.67,23,1,23,0.00
2013-3-1,65.5,54.8,46.0,21.1,15.1,9.6,23,21,18,28.32,28.23,17,6,17,0.00
2013-3-2,73.2,48.8,33.6,25.7,11.4,2.0,27,22,17,28.41,28.20,15,4,15,0.00
2013-3-3,85.1,59.1,33.4,30.2,17.2,2.2,27,20,14,28.20,27.94,22,6,24,0.00
2013-3-4,103.3,71.8,56.8,36.2,24.2,16.2,20,17,10,28.00,27.85,15,3,17,0.00
2013-3-5,72.3,54.5,33.1,24.3,14.8,1.1,25,21,17,28.41,27.94,31,5,31,0.00
2013-3-6,79.5,48.5,23.2,28.4,10.8,-5.8,28,22,15,28.41,28.20,11,2,11,0.00
2013-3-7,79.3,57.0,34.7,28.7,16.1,2.5,25,20,15,28.20,28.09,19,3,19,0.00
2013-3-8,67.1,62.2,58.3,51.5,30.0,19.8,64,31,20,28.15,28.00,0,0,0,0.00
2013-3-9,80.1,68.2,61.2,55.5,32.1,26.0,81,28,15,28.00,27.73,22,3,22,0.00
2013-3-10,69.4,57.0,36.3,55.5,21.4,3.9,83,29,18,28.12,27.79,23,4,23,0.00
2013-3-11,81.5,49.7,29.7,29.4,14.7,1.2,81,27,15,28.12,28.03,13,2,15,0.00
2013-3-12,89.4,61.2,36.3,32.6,18.4,3.9,29,19,13,28.32,27.97,18,4,18,0.00
2013-3-13,85.8,63.3,41.0,31.2,19.6,7.0,24,19,14,28.41,28.29,16,3,17,0.00
2013-3-14,85.6,64.4,43.2,31.0,20.8,7.9,31,19,14,28.35,28.23,19,6,19,0.00
2013-3-15,86.2,67.9,50.7,48.1,25.4,18.3,76,22,14,28.23,28.00,25,7,25,0.00
2013-3-16,89.8,71.4,58.5,32.6,24.8,18.0,25,18,13,28.00,27.82,22,7,22,0.00
2013-3-17,98.6,74.0,64.9,35.7,26.4,21.7,23,17,11,27.82,27.70,13,1,14,0.00
2013-3-18,95.2,72.2,58.6,66.5,35.4,17.7,83,33,12,27.94,27.64,15,4,16,0.00
2013-3-19,94.3,66.8,43.9,35.1,22.8,12.6,38,20,12,27.91,27.73,17,3,17,0.00
2013-3-20,81.3,61.3,48.0,42.4,22.6,13.0,67,24,15,28.00,27.70,13,3,15,0.00
2013-3-21,83.8,65.5,51.1,30.8,21.6,12.8,28,19,15,27.70,27.26,24,8,28,0.00
2013-3-22,87.6,69.4,53.6,53.1,28.2,14.6,72,23,14,27.41,27.20,13,4,13,0.00
2013-3-23,92.1,64.0,50.9,35.7,23.4,14.6,37,22,13,27.29,27.14,9,2,11,0.00
2013-3-24,64.0,50.7,36.7,33.2,13.1,3.9,35,22,19,27.41,27.17,26,8,26,0.00
2013-3-25,72.5,48.8,33.8,25.2,11.3,1.7,25,22,17,27.35,27.20,13,3,14,0.00
2013-3-26,79.9,50.5,24.8,28.7,12.1,-3.7,30,22,15,27.26,26.93,12,2,12,0.00
2013-3-27,75.6,57.3,36.7,26.3,16.4,3.9,25,20,16,26.93,26.70,22,6,22,0.00
2013-3-28,75.9,64.3,53.2,30.9,23.0,16.4,32,21,16,26.70,26.52,19,5,19,0.00
2013-3-29,82.6,69.1,57.6,49.0,29.9,21.6,72,27,15,26.52,26.40,18,6,20,0.00
2013-3-30,91.9,73.3,64.4,33.6,27.3,21.8,28,18,12,26.40,26.23,15,4,15,0.00
2013-3-31,89.8,71.7,63.0,52.6,31.0,21.3,66,23,13,26.26,26.14,12,3,13,0.00
2013-4-1,97.5,73.9,53.4,57.2,32.7,22.8,83,28,11,26.31,26.14,13,3,15,0.00
2013-4-2,85.6,69.5,64.9,60.0,32.3,24.4,77,28,14,26.23,26.08,14,2,15,0.00
2013-4-8,78.8,72.5,70.2,39.0,31.4,26.1,32,22,15,25.75,25.66,15,2,15,0.00
2013-4-9,92.8,76.2,70.2,45.7,31.6,27.4,41,20,12,25.75,25.58,18,2,19,0.00
2013-4-10,74.8,55.7,43.5,36.2,18.9,10.8,36,24,18,25.84,25.69,17,6,19,0.00
2013-4-11,85.1,59.4,41.5,30.6,17.6,7.4,24,20,14,25.90,25.69,10,1,10,0.00
2013-4-12,90.7,63.3,39.7,44.0,26.0,12.7,76,30,13,25.99,25.69,13,2,13,0.00
2013-4-13,88.0,68.6,52.5,32.6,23.3,14.6,31,18,14,25.90,25.69,15,2,15,0.00
2013-4-14,98.4,74.7,57.4,46.6,30.1,19.8,65,22,11,25.78,25.49,17,5,20,0.00
2013-4-15,97.5,79.6,69.4,41.5,31.5,26.0,36,18,11,25.90,25.61,17,5,17,0.00
2013-4-16,97.0,78.5,67.5,36.9,31.0,26.1,31,19,11,25.99,25.69,21,4,21,0.00
2013-4-17,89.1,77.8,72.9,56.9,35.6,27.3,57,23,13,25.87,25.69,23,3,24,0.00
2013-4-18,76.5,63.4,48.2,46.0,24.6,13.1,63,24,17,26.02,25.63,18,6,20,0.00
2013-4-19,78.6,54.9,33.6,35.0,17.9,6.7,73,26,16,26.11,25.93,14,3,17,0.00
2013-4-20,79.0,60.1,39.9,28.4,17.9,6.1,24,19,16,25.93,25.78,17,5,17,0.00
2013-4-21,88.2,65.2,48.9,32.6,22.5,15.5,36,20,13,25.93,25.66,16,4,16,0.00
2013-4-22,88.2,71.8,56.3,48.6,28.6,20.8,73,22,13,25.87,25.66,20,6,20,0.00
2013-4-23,82.4,64.7,49.1,31.7,22.6,11.9,25,20,14,25.75,25.52,17,3,20,0.00
2013-4-24,71.8,55.0,43.2,24.7,15.5,7.9,33,21,17,25.78,25.66,17,4,17,0.00
2013-4-25,77.4,62.3,50.9,28.8,20.1,13.7,39,20,16,25.78,25.63,8,2,10,0.00
2013-4-26,85.5,69.5,59.9,43.9,28.1,19.3,54,22,14,25.63,25.49,17,2,19,0.00
2013-4-27,99.3,78.3,67.3,63.9,36.3,23.5,78,27,11,25.61,25.40,13,2,15,0.00
2013-4-28,97.2,78.0,62.8,58.2,31.8,23.2,74,21,11,25.69,25.43,14,3,15,0.00
2013-4-29,96.3,75.4,63.9,60.7,32.8,23.2,76,24,12,25.58,25.34,15,3,15,0.00
2013-4-30,95.9,75.9,63.0,58.3,34.1,24.5,79,26,12,25.40,25.16,15,3,15,0.00
2013-5-1,103.6,78.9,66.6,46.2,32.1,25.9,45,20,10,25.43,25.07,15,3,16,0.00
2013-5-2,75.7,53.6,46.4,56.2,19.8,10.4,78,28,16,25.43,24.90,24,3,24,0.00
2013-5-3,79.0,56.2,39.9,28.1,15.9,6.1,32,21,15,24.90,17.72,17,5,18,0.00
2013-5-4,95.0,60.7,35.8,34.5,25.9,8.5,81,35,12,17.72,17.72,11,2,14,0.00